Regional Weather Roundup
Issued by NWS

Home | Current Version | Previous Version | Graphics & Text | Print | Product List | Glossary On
Versions: 1 2 3 4 5 6 7 8 9 10 11 12 13 14 15 16 17 18 19 20 21 22 23 24 25 26 27 28 29 30 31 32 33 34 35 36 37 38 39 40 41 42 43 44 45 46 47 48 49 50
000
ASUS43 KLMK 241510
RWRKY
KENTUCKY REGIONAL WEATHER ROUNDUP
NATIONAL WEATHER SERVICE LOUISVILLE KY
1100 AM EDT TUE MAY 24 2016

NOTE "FAIR" INDICATES FEW OR NO CLOUDS BELOW 12,000 FEET
WITH NO SIGNIFICANT WEATHER AND/OR OBSTRUCTIONS TO VISIBILITY.

KYZ001>023-026-027-061>063-070>075-241600-
WESTERN AND SOUTH CENTRAL KENTUCKY

CITY           SKY/WX    TMP DP  RH WIND       PRES   REMARKS
PADUCAH        CLOUDY    72  60  66 SE6       30.06S
HENDERSON      CLOUDY    73  55  53 S7        30.07S
OWENSBORO      MOSUNNY   76  56  49 S8        30.10S
HOPKINSVILLE   NOT AVBL
BOWLING GREEN  SUNNY     74  53  48 S5        30.12F
GLASGOW        SUNNY     75  51  42 CALM      30.13S
$$

KYZ024-025-028>034-038-045-046-053-241600-
NORTH CENTRAL KENTUCKY

CITY           SKY/WX    TMP DP  RH WIND       PRES   REMARKS
LOUISVILLE/SDF PTSUNNY   75  53  46 S5        30.12S
LOUISVILLE/LOU SUNNY     75  51  43 VRB6      30.12F
FORT KNOX      SUNNY     74  52  45 S7        30.11S
$$

KYZ035>037-039>044-047>052-055>060-089>105-241600-
NORTHEAST KENTUCKY

CITY           SKY/WX    TMP DP  RH WIND       PRES   REMARKS
LEXINGTON      SUNNY     74  51  44 W5        30.14S
COVINGTON      MOSUNNY   73  53  49 SW6       30.13S
FRANKFORT      SUNNY     74  54  49 SW6       30.13R
$$

KYZ054-064>069-076>088-106>120-241600-
SOUTHEAST KENTUCKY

CITY           SKY/WX    TMP DP  RH WIND       PRES   REMARKS
JACKSON        SUNNY     69  53  56 CALM      30.16S
LONDON         SUNNY     70  53  54 SW6       30.16S
SOMERSET       SUNNY     68  50  52 CALM      30.16S
MIDDLESBORO    SUNNY     70  54  57 CALM      30.17F
MONTICELLO     SUNNY     72  54  53 VRB6      30.17S
$$





USA.gov is the U.S. government's official web portal to all federal, state and local government web resources and services.